Location: Abbey Hill
(34.0751°N, 84.0688°W)
Time: 11:23:13
(UTC+00:00)

Tiangong - Visible Passes

Search period start: 17 September 2021 00:00
Search period end: 27 September 2021 00:00
Orbit: 380 x 384 km, 41.5° (Epoch: 17 September)

Date Brightness Start Highest point End Pass type
(mag) Time Alt. Az. Time Alt. Az. Time Alt. Az.
22 Sep 3.5 10:51:40 10° SSW 10:54:03 20° SE 10:56:26 10° E visible
24 Sep 2.2 10:27:09 14° SSW 10:29:31 37° SSE 10:32:29 10° ENE visible
25 Sep 3.6 09:29:50 18° ESE 09:29:50 18° ESE 09:31:24 10° E visible
26 Sep 1.0 10:04:34 60° SSW 10:05:00 75° SSE 10:08:08 10° ENE visible
